Regional Weather Roundup
Issued by NWS State College, PA

Home | Current Version | Previous Version | Graphics & Text | Print | Product List | Glossary Off
Versions: 1 2 3 4 5 6 7 8 9 10 11 12 13 14 15 16 17 18 19 20 21 22 23 24 25 26 27 28 29 30 31 32 33 34 35 36 37 38 39 40 41 42 43 44 45 46 47 48 49 50

000
ASUS41 KCTP 270403
RWRCTP

REGIONAL WEATHER ROUNDUP
NATIONAL WEATHER SERVICE STATE COLLEGE PA
1100 PM EST FRI DEC 26 2014

Note: "fair" indicates few or no clouds below 12,000 feet with no
significant weather and/or obstructions to visibility.

* = STATION THAT DOES NOT REPORT PRECIPITATION /E.G. RAIN...SNOW...ETC/
    THUNDER OR FOG.

PAZ002>004-007>009-013>016-020>023-029>032-270500-
WESTERN PENNSYLVANIA

CITY           SKY/WX    TMP DP  RH WIND       PRES   REMARKS
ERIE           PTCLDY    44  32  62 S13       30.15F
MEADVILLE      PTCLDY    40  31  70 S9        30.16F
FRANKLIN*      PTCLDY    37  28  70 SW6       30.19S
NEW CASTLE       N/A     41  32  70 CALM      30.20F
BEAVER COUNTY  NOT AVBL
BUTLER*        MOCLDY    39  30  70 S6        30.21S
PITTSBURGH INT MOCLDY    36  31  82 S5        30.20S
PITTSBURGH     MOCLDY    41  28  60 S9        30.19F
INDIANA*       CLEAR     32  28  86 CALM      30.25R
LATROBE        MOCLDY    39  30  70 S7        30.23F
WASHINGTON CO* NOT AVBL
$$

PAZ004>006-010>012-017>019-024>028-033>037-041-042-045-046-049>053-270500-
CENTRAL PENNSYLVANIA

CITY           SKY/WX    TMP DP  RH WIND       PRES   REMARKS
BRADFORD       CLEAR     37  28  70 SW5       30.15S
DUBOIS         PTCLDY    36  29  75 SW7       30.17F
CLEARFIELD     PTCLDY    31  28  89 S5        30.20S
JOHNSTOWN      PTCLDY    38  23  55 SW9       30.18S
ALTOONA        PTCLDY    40  26  57 SW3       30.20F
STATE COLLEGE  PTCLDY    32  28  83 CALM      30.20S
WILLIAMSPORT   PTCLDY    30  26  85 CALM      30.22S
SELINSGROVE    PTCLDY    28  25  88 CALM      30.24S
FT INDIANTOWN  PTCLDY    28  27  95 NE2       30.24S
CAPITAL CITY   CLEAR     32  28  85 CALM      30.24F
HARRISBURG     PTCLDY    29  27  92 CALM      30.23F
YORK           CLEAR     36  29  75 N6        30.24S
$$

PAZ038>040-043-044-047-048-054-055-060>062-067>071-270500-
EASTERN PENNSYLVANIA

CITY           SKY/WX    TMP DP  RH WIND       PRES   REMARKS
SCRANTON       CLEAR     34  27  75 S7        30.19F
MOUNT POCONO   PTCLDY    33  26  75 W7        30.16F
ALLENTOWN      PTCLDY    31  26  82 W3        30.24S
QUAKERTOWN*    NOT AVBL
READING        PTCLDY    31  27  85 CALM      30.24S
LANCASTER      PTCLDY    32  28  85 CALM      30.24F
COATESVILLE    CLEAR     39  32  75 W3        30.25S
POTTSTOWN      CLEAR     30  27  88 CALM      30.26S
BLUE BELL      CLEAR     32  32 100 CALM      30.25S
DOYLESTOWN     PTCLDY    34  30  85 SW6       30.24S
WILLOW GROVE   NOT AVBL
NORTH PHILA    CLEAR     40  29  64 SW7       30.27S
PHILADELPHIA   PTCLDY    40  31  70 SW8       30.28R
$$


USA.gov is the U.S. government's official web portal to all federal, state and local government web resources and services.